Location: Hohe Wand Kleine Kanzel
(47.8330°N, 16.0170°E)
Time: 14:45:07
(UTC+02:00)

Courier 1B Rocket - Pass Details

Date: 04 August 2021
Orbit: 920 x 1202 km, 28.3° (Epoch: 27 September)

Event Time Altitude Azimuth Distance (km) Brightness Sun altitude
Rises 02:07:59 0° 223° (SW) 3,846 - -23.3°
Reaches altitude 10° 02:12:43 10° 196° (SSW) 2,818 - -23.0°
Maximum altitude 02:15:17 12° 173° (S) 2,610 - -22.9°
Drops below altitude 10° 02:17:48 10° 151° (SSE) 2,744 - -22.8°
Exits shadow 02:20:25 - 132° (SE) 3,194 7.5 -22.6°
Sets 02:22:15 0° 122° (ESE) 3,634 7.9 -22.5°
